[[{"header":{"parameterUnit":"m.s-1","parameterCategory":1,"la1":30.2991,"la2":30.254,"lo1":-89.0895,"lo2":-89.0444,"dy":0.0017,"dx":0.0017,"nx":28,"ny":28,"refTime":"2025-11-19T09:00:00:Z","depth":0,"parameterNumber":2,"parameterNumberName":"U-component_of_WINDS"},"data":[0,0,0,0,0,0,0,0,0,0,0,0,0,0,0,0,0,0,0,0,0,0,0,0,0,0,0,0,0,0,0,0,0,0,0,0,0,0,0,0,0,0,0,0,0,0,0,0,0,0,0,0,0,0,0,0,0,0,-1.5311,-1.5312,0,-1.5338,-1.5339,-1.5339,-1.531,-1.5309,-1.5307,-1.5306,-1.5334,-1.5336,-1.5338,0,0,0,0,0,0,0,0,0,0,0,0,0,-1.5236,-1.5237,-1.5311,-1.5312,-1.5312,-1.5338,-1.5339,-1.5339,-1.531,-1.5309,-1.5307,-1.5306,-1.5334,-1.5336,-1.5338,0,0,0,0,0,0,0,0,0,0,0,0,0,-1.5266,-1.5238,-1.5311,-1.5301,-1.53,-1.5338,-1.5339,-1.5339,-1.531,-1.5308,-1.5307,-1.5305,-1.5333,-1.5336,-1.5338,-1.5388,0,0,-1.5346,-1.5348,0,0,0,0,0,0,0,0,-1.5265,-1.5269,-1.5302,-1.5302,-1.5301,-1.5319,-1.5322,-1.5356,-1.5311,-1.5306,-1.5306,-1.5304,-1.5331,-1.5333,-1.5342,-1.539,-1.5391,-1.5347,-1.5348,-1.5349,-1.535,0,0,0,0,0,0,0,-1.5262,-1.5268,-1.5322,-1.5302,-1.5302,-1.5295,-1.5297,-1.5328,-1.5328,-1.5307,-1.5305,-1.5308,-1.533,-1.534,-1.5342,-1.5391,-1.5347,-1.5349,-1.5351,-1.5352,-1.5482,-1.5484,0,0,0,0,0,0,-1.5261,-1.5266,-1.5321,-1.5323,-1.5278,-1.5298,-1.53,-1.5315,-1.5327,-1.5327,-1.5309,-1.5307,-1.5336,-1.5339,-1.5343,-1.5403,-1.5349,-1.5352,-1.5353,-1.5481,-1.5483,-1.5485,0,0,0,0,0,0,-1.526,-1.5267,-1.532,-1.5294,-1.53,-1.5301,-1.5317,-1.5316,-1.5326,-1.5329,-1.5329,-1.5319,-1.5335,-1.534,-1.5378,-1.5404,-1.5353,-1.5356,-1.5478,-1.5481,-1.5484,-1.5523,0,0,0,0,0,0,-1.5258,-1.5266,-1.5285,-1.5295,-1.5302,-1.5354,-1.5319,-1.5318,-1.533,-1.5327,-1.5339,-1.5339,-1.5334,-1.5374,-1.538,-1.5407,-1.5358,-1.5476,-1.548,-1.5483,-1.552,-1.5527,-1.5533,0,0,0,0,0,-1.5255,-1.5295,-1.5286,-1.5293,-1.5325,-1.5355,-1.5359,-1.5352,-1.5333,-1.5352,-1.5354,-1.5339,-1.54,-1.5378,-1.5385,-1.5412,-1.5474,-1.5479,-1.5483,-1.5516,-1.5525,-1.5533,0,0,0,0,0,0,-1.5288,-1.5296,-1.5286,-1.533,-1.5342,-1.535,-1.5374,-1.5362,-1.538,-1.5376,-1.5367,-1.537,-1.541,-1.5415,-1.539,-1.5462,-1.5434,-1.544,-1.5457,-1.5466,-1.5473,-1.547,-1.536,0,0,0,0,0,-1.53,-1.5324,-1.533,-1.5368,-1.5374,-1.5373,-1.5386,-1.538,-1.5392,-1.5397,-1.5402,-1.5415,-1.5437,-1.5452,-1.5472,-1.552,-1.5523,-1.5543,-1.555,-1.5556,-1.556,-1.5587,-1.5596,-1.5499,-1.5499,-1.5498,0,0,-1.5326,-1.5333,-1.5349,-1.5375,-1.5383,-1.5408,-1.5378,-1.5405,-1.5424,-1.5401,-1.5437,-1.5442,-1.5456,-1.5499,-1.5518,-1.5504,-1.5588,-1.5561,-1.5565,-1.5567,-1.5592,-1.5601,-1.561,-1.5501,-1.5501,-1.55,0,0,-1.5385,-1.5393,-1.5426,-1.5436,-1.5449,-1.5449,-1.5457,-1.5467,-1.5469,-1.5505,-1.5489,-1.5511,-1.555,-1.556,-1.557,-1.5636,-1.5622,-1.5643,-1.5678,-1.5704,-1.5712,-1.5719,-1.5742,-1.5751,-1.5648,-1.5648,-1.5648,0,-1.5416,-1.5452,-1.5444,-1.5473,-1.5485,-1.5467,-1.55,-1.551,-1.553,-1.5539,-1.5523,-1.5571,-1.5579,-1.5625,-1.5641,-1.565,-1.5659,-1.5641,-1.5711,-1.5718,-1.5724,-1.5747,-1.5755,-1.565,-1.565,-1.565,-1.5649,0,-1.5489,-1.5514,-1.5539,-1.5559,-1.5574,-1.5605,-1.5603,-1.5619,-1.5612,-1.5613,-1.5651,-1.566,-1.5682,-1.5693,-1.5686,-1.5738,-1.5729,-1.5713,-1.5684,-1.5736,-1.5757,-1.5765,-1.5654,-1.5653,-1.5652,-1.5651,0,0,-1.5568,-1.5584,-1.5594,-1.5603,-1.5617,-1.5637,-1.5668,-1.569,-1.5704,-1.5719,-1.5744,-1.5778,-1.5763,-1.5775,-1.577,-1.5792,-1.5844,-1.5773,-1.5773,-1.5786,-1.5902,-1.5914,-1.5924,-1.5835,-1.5837,-1.5838,-1.5901,0,-1.5628,-1.5681,-1.5675,-1.5726,-1.575,-1.5733,-1.576,-1.5772,-1.5774,-1.5795,-1.5798,-1.5822,-1.58,-1.5808,-1.5829,-1.5833,-1.5867,-1.5828,-1.5859,-1.586,-1.5856,-1.5935,-1.5948,-1.6006,-1.5909,-1.591,-1.5911,0,-1.5704,-1.5722,-1.5775,-1.5786,-1.5796,-1.582,-1.584,-1.5861,-1.5875,-1.5875,-1.5889,-1.588,-1.5911,-1.5883,-1.5926,-1.59,-1.5913,-1.5917,-1.5919,-1.5921,-1.5889,-1.5939,-1.6025,-1.6034,-1.5924,-1.5923,-1.5922,0,-1.5757,-1.5794,-1.583,-1.5839,-1.5853,-1.5871,-1.5878,-1.589,-1.5904,-1.5922,-1.5931,-1.5952,-1.5964,-1.5981,-1.5978,-1.5958,-1.6023,-1.5994,-1.6024,-1.6024,-1.6038,-1.6037,-1.6127,-1.6047,-1.6047,-1.6047,-1.6046,0,-1.5824,-1.5857,-1.5854,-1.5877,-1.5914,-1.5908,-1.5945,-1.5949,-1.5961,-1.5984,-1.5971,-1.5994,-1.5989,-1.6012,-1.601,-1.6046,-1.6052,-1.6053,-1.6052,-1.6054,-1.6054,-1.6061,-1.6057,-1.6049,-1.6048,-1.6048,-1.6048,0,-1.5888,-1.5888,-1.5927,-1.5938,-1.5941,-1.5968,-1.5977,-1.5999,-1.6001,-1.6031,-1.6037,-1.604,-1.6066,-1.6065,-1.6095,-1.6094,-1.6139,-1.6133,-1.6134,-1.6133,-1.6163,-1.616,-1.626,-1.6273,-1.6185,-1.6186,-1.6187,0,-1.5931,-1.5956,-1.5969,-1.5984,-1.5992,-1.6016,-1.6031,-1.6026,-1.6042,-1.606,-1.608,-1.6105,-1.6124,-1.6167,-1.6171,-1.6194,-1.6189,-1.6223,-1.6192,-1.6194,-1.6189,-1.6188,-1.619,-1.6228,-1.6229,-1.623,-1.6231,0,-1.6006,-1.6005,-1.6026,-1.6047,-1.6065,-1.6081,-1.6097,-1.611,-1.6107,-1.6125,-1.6152,-1.6167,-1.6198,-1.6223,-1.6245,-1.6252,-1.6242,-1.6241,-1.6249,-1.6251,-1.625,-1.6251,-1.615,-1.6238,-1.6237,-1.6237,-1.6236,-1.6236,-1.6061,-1.6082,-1.6096,-1.612,-1.6131,-1.6146,-1.6167,-1.6171,-1.6193,-1.6218,-1.6214,-1.6244,-1.6258,-1.6287,-1.6296,-1.632,-1.6308,-1.632,-1.6323,-1.6326,-1.6329,-1.6247,-1.6324,-1.6324,-1.6324,-1.6323,-1.6323,0,-1.6135,-1.6143,-1.6165,-1.6187,-1.6207,-1.6195,-1.6212,-1.6229,-1.6255,-1.6269,-1.6289,-1.632,-1.6344,-1.6352,-1.6376,-1.6393,-1.6389,-1.64,-1.6398,-1.64,-1.6338,-1.6329,-1.6403,-1.6403,-1.6403,-1.6403,-1.6403,-1.6403,-1.6176,-1.6212,-1.6213,-1.6255,-1.6263,-1.6292,-1.6303,-1.6317,-1.6328,-1.6363,-1.6383,-1.6388,-1.64,-1.6424,-1.6447,-1.6448,-1.6458,-1.6471,-1.647,-1.6412,-1.6404,-1.6397,-1.6388,-1.6473,-1.6473,-1.653,-1.653,-1.6531]},{"header":{"parameterUnit":"m.s-1","parameterCategory":1,"la1":30.2991,"la2":30.254,"lo1":-89.0895,"lo2":-89.0444,"dy":0.0017,"dx":0.0017,"nx":28,"ny":28,"refTime":"2025-11-19T09:00:00:Z","depth":0,"parameterNumber":3,"parameterNumberName":"V-component_of_WINDS"},"data":[0,0,0,0,0,0,0,0,0,0,0,0,0,0,0,0,0,0,0,0,0,0,0,0,0,0,0,0,0,0,0,0,0,0,0,0,0,0,0,0,0,0,0,0,0,0,0,0,0,0,0,0,0,0,0,0,0,0,0.6858,0.6858,0,0.6841,0.6841,0.684,0.6844,0.6845,0.6845,0.6845,0.6825,0.6825,0.6824,0,0,0,0,0,0,0,0,0,0,0,0,0,0.6895,0.6894,0.6858,0.6858,0.6858,0.6841,0.6841,0.684,0.6844,0.6845,0.6845,0.6846,0.6826,0.6825,0.6824,0,0,0,0,0,0,0,0,0,0,0,0,0,0.6878,0.6894,0.6858,0.6858,0.6858,0.6841,0.6841,0.684,0.6844,0.6845,0.6845,0.6846,0.6826,0.6825,0.6824,0.6805,0,0,0.682,0.6819,0,0,0,0,0,0,0,0,0.6879,0.6877,0.6858,0.6858,0.6858,0.6845,0.6846,0.6829,0.6844,0.6849,0.6845,0.6846,0.6832,0.683,0.6825,0.6805,0.6804,0.682,0.6819,0.6818,0.6818,0,0,0,0,0,0,0,0.688,0.6878,0.6851,0.6858,0.6858,0.6858,0.6857,0.6843,0.6838,0.6849,0.6849,0.6847,0.6831,0.6827,0.6825,0.6803,0.682,0.6818,0.6818,0.6817,0.6769,0.6768,0,0,0,0,0,0,0.6882,0.6878,0.6852,0.6851,0.687,0.6857,0.6855,0.6849,0.6838,0.6837,0.6847,0.6847,0.6828,0.6826,0.6824,0.6803,0.6818,0.6817,0.6816,0.6769,0.6769,0.6768,0,0,0,0,0,0,0.6882,0.6879,0.6853,0.6865,0.6861,0.6856,0.6849,0.6848,0.6843,0.6836,0.6835,0.6843,0.6829,0.6826,0.6811,0.6803,0.6816,0.6815,0.677,0.6769,0.6768,0.6761,0,0,0,0,0,0,0.6884,0.688,0.6873,0.6865,0.6861,0.6839,0.6848,0.6847,0.6841,0.6842,0.6832,0.6831,0.6829,0.6813,0.6809,0.6801,0.6814,0.677,0.6769,0.6769,0.6762,0.676,0.6758,0,0,0,0,0,0.6885,0.687,0.6872,0.6869,0.6852,0.6839,0.6837,0.6835,0.6841,0.6834,0.683,0.6831,0.6804,0.6811,0.6807,0.6799,0.6771,0.677,0.6769,0.6763,0.676,0.6758,0,0,0,0,0,0,0.6876,0.6869,0.6871,0.6854,0.6847,0.684,0.6831,0.6833,0.6824,0.6824,0.6822,0.682,0.6805,0.68,0.6808,0.6782,0.6788,0.6786,0.6785,0.6783,0.6781,0.6782,0.6813,0,0,0,0,0,0.6873,0.6863,0.6857,0.6843,0.6839,0.6836,0.683,0.683,0.6822,0.6819,0.6814,0.6806,0.6796,0.6789,0.6779,0.6762,0.676,0.6754,0.6752,0.6751,0.6749,0.6741,0.6738,0.6764,0.6764,0.6764,0,0,0.6864,0.686,0.6853,0.6841,0.6835,0.6826,0.6833,0.6822,0.6814,0.6817,0.6803,0.6799,0.679,0.6774,0.6766,0.6769,0.6742,0.6749,0.6748,0.6747,0.6739,0.6737,0.6735,0.6763,0.6763,0.6764,0,0,0.6845,0.684,0.6828,0.6823,0.6815,0.6814,0.6811,0.6803,0.6801,0.6787,0.6789,0.678,0.6763,0.6757,0.6752,0.6732,0.6734,0.6729,0.672,0.6712,0.671,0.6708,0.6702,0.6699,0.6728,0.6728,0.6727,0,0.6835,0.6821,0.6821,0.681,0.6805,0.6809,0.6796,0.6791,0.6781,0.6777,0.6781,0.676,0.6755,0.6738,0.6733,0.6729,0.6726,0.673,0.671,0.6708,0.6707,0.6701,0.6698,0.6727,0.6727,0.6727,0.6727,0,0.681,0.68,0.6791,0.6783,0.6776,0.6765,0.6763,0.6757,0.6758,0.6756,0.6742,0.6736,0.6725,0.6721,0.6721,0.6705,0.6707,0.6711,0.6717,0.6704,0.6698,0.6696,0.6726,0.6726,0.6727,0.6727,0,0,0.6783,0.6776,0.6773,0.677,0.6763,0.6755,0.6744,0.6735,0.673,0.6723,0.6714,0.67,0.6704,0.6698,0.6698,0.6691,0.6677,0.6695,0.6695,0.6693,0.666,0.6657,0.6655,0.6679,0.6678,0.6678,0.6661,0,0.6763,0.6745,0.6746,0.6728,0.672,0.6724,0.6715,0.671,0.6708,0.67,0.6698,0.6688,0.6693,0.669,0.6683,0.668,0.667,0.6681,0.667,0.667,0.6672,0.6652,0.6648,0.6633,0.6658,0.6658,0.6658,0,0.6737,0.6731,0.6713,0.6709,0.6706,0.6697,0.669,0.6683,0.6677,0.6676,0.6671,0.6672,0.6662,0.6669,0.6655,0.6663,0.6658,0.6656,0.6656,0.6654,0.6663,0.665,0.6627,0.6625,0.6654,0.6654,0.6655,0,0.672,0.6707,0.6695,0.6692,0.6687,0.6681,0.6679,0.6674,0.6669,0.6663,0.666,0.6652,0.6648,0.6642,0.6641,0.6646,0.6627,0.6634,0.6626,0.6626,0.6621,0.6621,0.6598,0.6618,0.6618,0.6618,0.6618,0,0.6697,0.6687,0.6688,0.668,0.6669,0.667,0.6659,0.6656,0.6653,0.6645,0.6648,0.6641,0.664,0.6633,0.6633,0.6621,0.6619,0.6618,0.6618,0.6618,0.6618,0.6615,0.6616,0.6618,0.6618,0.6618,0.6618,0,0.6676,0.6676,0.6664,0.6661,0.666,0.6652,0.6649,0.6642,0.6641,0.6632,0.663,0.6628,0.662,0.6619,0.6609,0.6609,0.6595,0.6596,0.6598,0.6598,0.659,0.6591,0.6563,0.656,0.6582,0.6582,0.6582,0,0.6662,0.6654,0.6651,0.6646,0.6644,0.6637,0.6632,0.6634,0.6629,0.6624,0.6618,0.661,0.6604,0.6591,0.6589,0.6581,0.6582,0.6573,0.6581,0.6582,0.6583,0.6584,0.6583,0.6572,0.6571,0.6571,0.6571,0,0.6637,0.6638,0.6632,0.6626,0.6621,0.6617,0.6613,0.6609,0.661,0.6604,0.6597,0.6592,0.6583,0.6576,0.6569,0.6567,0.6569,0.6569,0.6567,0.6566,0.6568,0.6568,0.6594,0.6569,0.657,0.657,0.657,0.657,0.6619,0.6612,0.661,0.6603,0.6601,0.6597,0.6591,0.6591,0.6584,0.6578,0.6579,0.6571,0.6567,0.6559,0.6556,0.6549,0.6552,0.6549,0.6548,0.6547,0.6547,0.6569,0.6548,0.6548,0.6548,0.6548,0.6548,0,0.6594,0.6593,0.6587,0.6582,0.6578,0.6582,0.6578,0.6573,0.6566,0.6563,0.6558,0.655,0.6543,0.6541,0.6535,0.653,0.6531,0.6529,0.6529,0.6528,0.6544,0.6547,0.6528,0.6528,0.6528,0.6528,0.6528,0.6528,0.6581,0.6571,0.6572,0.6561,0.656,0.6553,0.6551,0.6548,0.6545,0.6536,0.6531,0.6531,0.6528,0.6522,0.6516,0.6516,0.6514,0.651,0.6511,0.6525,0.6527,0.6529,0.6532,0.651,0.651,0.6496,0.6495,0.6495]}]]